sat.trackr.live / text

‹ back to catalog

STARLINK-4286

NORAD 52990 · 2022-076E

PAYLOAD ACTIVE UNKNOWN

§ Identity

Operator
Country
US
Launch date
2022-07-07
Launch site
AFETR
Launch vehicle
Mass (kg)
RCS (m²)

Purposes: comms

External: N2YO · Heavens-Above · Gunter

§ Orbital elements

Epoch: 2026-05-25T02:50:36.631392Z

Period
95.44 min
Inclination
53.2127°
Eccentricity
0.0001007
Mean motion
15.08853119 rev/d
Perigee alt
539.0 km
Apogee alt
540.4 km
Semi-major
6,917.8 km
B*
-1.2055e-4
RAAN
121.0206°
Arg perigee
77.9099°
Mean anomaly
282.2006°
Rev number
21,424

§ Raw data

STARLINK-42861 52990U 22076E   26145.11847953 -.00002206  00000+0 -12055-3 0  99952 52990  53.2127 121.0206 0001007  77.9099 282.2006 15.08853119214242

JSON: /api/v1/satellites/52990 · /tle

For live sub-satellite position, see the globe view (requires WebGL).

§ Visibility from observer

Set your observer location to see the next 7 days of passes ≥ 10°. The values pass through the URL so the page stays shareable.

No JS? Fill the form by hand. The geolocation button needs JavaScript.